Weather History for Meadville, PA

Change the Weather History Date:

Saturday, June 22, 2013

  Actual Average Record
Temperature  
Mean Temperature 74 °F -  
Max Temperature 86 °F 77 °F 92 °F (1953)
Min Temperature 64 °F 54 °F 37 °F (1963)
Cooling Degree Days 9    
Growing Degree Days 24 (Base 50)    
Moisture  
Dew Point 60 °F    
Average Humidity 60    
Maximum Humidity 73    
Minimum Humidity 44    
Precipitation  
Precipitation 0.00 in - - ()
Sea Level Pressure  
Sea Level Pressure 30.13 in    
Wind  
Wind Speed 3 mph (SSW)    
Max Wind Speed 10 mph    
Max Gust Speed 18 mph    
Visibility 10 miles    
Events      
Averages and records for this station are not official NWS values.
T = Trace of Precipitation, MM = Missing Value Source: NWS Daily Summary

Daily Weather History Graph

Daily Weather History Graph

Search for Another Location

Airport:

Trip Planner

Search our weather history database for the weather conditions in past years. The results will help you decide how hot, cold, wet, or windy it might be!

Date:

Astronomy

Jun. 22, 2013 Rise Set
Actual Time 5:46 AM EDT 8:58 PM EDT
Civil Twilight 5:12 AM EDT 9:33 PM EDT
Nautical Twilight 4:28 AM EDT 10:16 PM EDT
Astronomical Twilight 3:36 AM EDT 11:09 PM EDT
Moon 8:11 PM EDT (6/22) 4:58 AM EDT (6/22)
Length of Visible Light 16h 20m
Length of Day
15h 11m
Waxing Gibbous, 99% of the Moon is Illuminated
Jun 22
Waxing Gibbous
Jun 23
Full
Jun 30
Last Quarter
Jul 8
New
Jul 15
First Quarter

Hourly Weather History & Observations

Time (EDT) Temp. Heat Index Dew Point Humidity Pressure Visibility Wind Dir Wind Speed Gust Speed Precip Events Conditions
12:53 AM 68.0 °F - 55.9 °F 65% 30.19 in 10.0 mi Calm Calm - N/A   Clear
1:53 AM 66.0 °F - 55.9 °F 70% 30.18 in 10.0 mi Calm Calm - N/A   Clear
2:53 AM 66.9 °F - 55.0 °F 66% 30.16 in 10.0 mi Calm Calm - N/A   Clear
3:53 AM 66.0 °F - 55.0 °F 68% 30.14 in 10.0 mi Calm Calm - N/A   Clear
4:53 AM 66.0 °F - 55.9 °F 70% 30.14 in 10.0 mi Calm Calm - N/A   Clear
5:53 AM 64.9 °F - 55.9 °F 73% 30.14 in 10.0 mi Calm Calm - N/A   Clear
6:53 AM 66.0 °F - 55.9 °F 70% 30.14 in 10.0 mi South 4.6 mph - N/A   Clear
7:53 AM 68.0 °F - 57.0 °F 68% 30.16 in 10.0 mi South 4.6 mph - N/A   Clear
8:53 AM 71.1 °F - 60.1 °F 68% 30.16 in 10.0 mi Variable 4.6 mph - N/A   Partly Cloudy
9:53 AM 75.9 °F - 61.0 °F 60% 30.18 in 10.0 mi SSW 9.2 mph - N/A   Clear
10:53 AM 79.0 °F - 62.1 °F 56% 30.18 in 10.0 mi SW 8.1 mph - N/A   Clear
11:53 AM 81.0 °F 82.5 °F 64.0 °F 56% 30.17 in 10.0 mi SW 9.2 mph 18.4 mph N/A   Clear
12:53 PM 82.9 °F 84.6 °F 64.9 °F 54% 30.16 in 10.0 mi SSW 10.4 mph - N/A   Clear
1:53 PM 84.9 °F 86.1 °F 64.0 °F 49% 30.14 in 10.0 mi SSW 6.9 mph - N/A   Clear
2:53 PM 84.9 °F 85.9 °F 63.0 °F 48% 30.14 in 10.0 mi SW 6.9 mph 16.1 mph N/A   Clear
3:53 PM 84.9 °F 85.4 °F 62.1 °F 46% 30.12 in 10.0 mi SSW 10.4 mph - N/A   Clear
4:53 PM 84.9 °F 85.0 °F 61.0 °F 44% 30.08 in 10.0 mi South 9.2 mph - N/A   Clear
5:53 PM 84.0 °F 84.5 °F 62.1 °F 47% 30.07 in 10.0 mi SSW 9.2 mph - N/A   Clear
6:53 PM 82.0 °F 83.0 °F 62.1 °F 51% 30.06 in 10.0 mi South 5.8 mph - N/A   Clear
7:53 PM 81.0 °F 82.2 °F 63.0 °F 54% 30.06 in 10.0 mi SSW 6.9 mph - N/A   Clear
8:53 PM 78.1 °F - 63.0 °F 60% 30.07 in 10.0 mi South 4.6 mph - N/A   Clear
9:53 PM 75.9 °F - 64.0 °F 67% 30.09 in 10.0 mi South 4.6 mph - N/A   Clear
10:53 PM 73.9 °F - 64.0 °F 71% 30.11 in 10.0 mi SSW 3.5 mph - N/A   Clear
11:53 PM 75.0 °F - 64.0 °F 69% 30.11 in 10.0 mi Calm Calm - N/A   Mostly Cloudy